Location: Seven Kings
(51.5667°N, 0.1000°E)
Time: 12:19:55
(UTC+00:00)

NOSS 3-4 (A) - Pass Details

Date: 29 October 2020
Orbit: 885 x 1327 km, 63.4° (Epoch: 06 November)

Event Time Altitude Azimuth Distance (km) Brightness Sun altitude
Rises 19:41:47 0° 314° (NW) 3,800 7.5 -29.0°
Reaches altitude 10° 19:44:19 10° 311° (NW) 2,904 6.7 -29.4°
Maximum altitude 19:51:06 58° 234° (SW) 1,324 4.2 -30.4°
Enters shadow 19:53:07 45° 184° (S) 1,562 4.4 -30.7°
